AI9T Weather Reports


Display with metric or nautical units.
time (UTC)temp
F
wind
direction
speed
MPH
gust
MPH
rain 1hr
in
rain 24hr
in
rain mn
in
humidity
%
barometer
mb
20260905194503 98 275 0.0 6.0 0.00 0.00 0.00 46 1009.9
20260905194004 97 251 1.0 6.0 0.00 0.00 0.00 47 1009.8
20260905193504 97 347 0.0 5.0 0.00 0.00 0.00 46 1009.9
20260905193004 97 279 1.0 6.0 0.00 0.00 0.00 45 1010.0
20260905192504 97 277 2.0 7.0 0.00 0.00 0.00 46 1010.0
20260905192004 97 224 1.0 7.0 0.00 0.00 0.00 46 1010.1
20260905191004 96 323 1.0 7.0 0.00 0.00 0.00 46 1010.2
20260905190504 96 317 1.0 7.0 0.00 0.00 0.00 46 1010.2
20260905190003 96 231 1.0 8.0 0.00 0.00 0.00 46 1010.2
20260905185504 96 293 2.0 8.0 0.00 0.00 0.00 46 1010.3
20260905185004 96 332 1.0 7.0 0.00 0.00 0.00 50 1010.4
20260905184503 96 319 3.0 8.0 0.00 0.00 0.00 50 1010.5
20260905183503 95 89 0.0 3.0 0.00 0.00 0.00 49 1010.6
20260905183004 95 316 0.0 3.0 0.00 0.00 0.00 49 1010.6
20260905182504 95 313 0.0 3.0 0.00 0.00 0.00 50 1010.7
20260905182004 95 330 0.0 7.0 0.00 0.00 0.00 52 1010.8
20260905181004 96 313 1.0 5.0 0.00 0.00 0.00 50 1010.9
20260905180504 96 20 0.0 5.0 0.00 0.00 0.00 52 1010.9
20260905175504 96 232 0.0 1.0 0.00 0.00 0.00 49 1010.9
20260905174504 96 230 0.0 3.0 0.00 0.00 0.00 50 1011.1
20260905172503 95 270 0.0 3.0 0.00 0.00 0.00 51 1011.1
20260905171503 95 165 0.0 0.0 0.00 0.00 0.00 56 1011.2
20260905171004 94 171 0.0 0.0 0.00 0.00 0.00 56 1011.2
20260905170503 94 171 0.0 0.0 0.00 0.00 0.00 54 1011.2
20260905170003 94 181 0.0 0.0 0.00 0.00 0.00 54 1011.4
20260905165504 94 184 0.0 1.0 0.00 0.00 0.00 55 1011.4
20260905165004 94 97 0.0 2.0 0.00 0.00 0.00 56 1011.4
20260905164503 93 49 0.0 2.0 0.00 0.00 0.00 57 1011.5
20260905164003 93 47 0.0 0.0 0.00 0.00 0.00 57 1011.6
20260905162504 92 46 0.0 2.0 0.00 0.00 0.00 57 1011.7
20260905162004 92 56 0.0 3.0 0.00 0.00 0.00 59 1011.8
20260905160004 91 74 0.0 0.0 0.00 0.00 0.00 60 1011.7
20260905155504 91 74 0.0 0.0 0.00 0.00 0.00 60 1011.9
20260905154005 90 74 0.0 2.0 0.00 0.00 0.00 63 1011.8
20260905153504 90 73 0.0 1.0 0.00 0.00 0.00 62 1011.8
20260905153004 89 73 0.0 3.0 0.00 0.00 0.00 63 1011.9
20260905152504 89 73 1.0 5.0 0.00 0.00 0.00 66 1012.0
20260905151504 88 85 1.0 5.0 0.00 0.00 0.00 67 1012.2
20260905151004 88 72 0.0 10.0 0.00 0.00 0.00 67 1012.4
20260905145504 88 40 0.0 0.0 0.00 0.00 0.00 65 1012.1
20260905145004 89 34 0.0 0.0 0.00 0.00 0.00 61 1012.1
20260905144504 89 43 0.0 0.0 0.00 0.00 0.00 64 1011.9
20260905144004 88 51 0.0 0.0 0.00 0.00 0.00 67 1011.8
20260905143504 88 84 0.0 0.0 0.00 0.00 0.00 67 1011.9
20260905141503 86 84 0.0 0.0 0.00 0.00 0.00 69 1011.8
20260905141004 86 99 0.0 0.0 0.00 0.00 0.00 69 1011.8
20260905140504 85 99 0.0 0.0 0.00 0.00 0.00 71 1011.8
20260905134504 84 98 0.0 0.0 0.00 0.00 0.00 78 1011.6
20260905133504 83 98 0.0 0.0 0.00 0.00 0.00 79 1011.6
20260905130503 80 98 0.0 0.0 0.00 0.00 0.00 89 1011.9
20260905125004 77 97 0.0 0.0 0.00 0.00 0.00 95 1011.9
20260905124504 77 96 0.0 0.0 0.00 0.00 0.00 96 1011.9
20260905124004 76 96 0.0 0.0 0.00 0.00 0.00 97 1012.1
20260905123004 74 96 0.0 0.0 0.00 0.00 0.00 97 1011.9
20260905121003 73 96 0.0 3.0 0.00 0.00 0.00 97 1011.8
20260905120504 73 96 1.0 5.0 0.00 0.00 0.00 97 1011.8
20260905113004 73 208 0.0 0.0 0.00 0.00 0.00 96 1011.4
20260905112504 73 208 0.0 0.0 0.00 0.00 0.00 96 1011.5
20260905112004 73 208 0.0 0.0 0.00 0.00 0.00 96 1011.5
20260905111504 73 208 0.0 0.0 0.00 0.00 0.00 96 1011.5
20260905110503 73 208 0.0 0.0 0.00 0.00 0.00 96 1011.4
20260905110004 73 208 0.0 0.0 0.00 0.00 0.00 96 1011.4
20260905105504 73 208 0.0 0.0 0.00 0.00 0.00 96 1011.4
20260905105004 73 208 0.0 0.0 0.00 0.00 0.00 96 1011.4
20260905104504 73 208 0.0 0.0 0.00 0.00 0.00 96 1011.3
20260905103504 73 208 0.0 0.0 0.00 0.00 0.00 95 1011.3
20260905102004 73 208 0.0 0.0 0.00 0.00 0.00 95 1011.4
20260905100504 74 208 0.0 0.0 0.00 0.00 0.00 95 1011.4
20260905100004 74 208 0.0 0.0 0.00 0.00 0.00 95 1011.3
20260905095504 74 208 0.0 0.0 0.00 0.00 0.00 95 1011.1
20260905094503 74 208 0.0 0.0 0.00 0.00 0.00 95 1011.2
20260905094003 74 208 0.0 0.0 0.00 0.00 0.00 95 1011.2
20260905093004 74 208 0.0 0.0 0.00 0.00 0.00 95 1011.2
20260905091004 74 208 0.0 0.0 0.00 0.00 0.00 96 1011.2
20260905090503 74 208 0.0 0.0 0.00 0.00 0.00 96 1011.1
20260905085004 74 208 0.0 2.0 0.00 0.00 0.00 96 1011.1
20260905084504 74 208 1.0 2.0 0.00 0.00 0.00 96 1011.1
20260905084004 74 208 0.0 6.0 0.00 0.00 0.00 96 1011.1
20260905083504 74 208 0.0 6.0 0.00 0.00 0.00 96 1011.1
20260905082005 74 210 0.0 6.0 0.00 0.00 0.00 96 1010.9
20260905081504 74 210 0.0 0.0 0.00 0.00 0.00 96 1010.9
20260905081004 74 210 0.0 0.0 0.00 0.00 0.00 96 1010.9
20260905080003 74 210 0.0 0.0 0.00 0.00 0.00 96 1011.0
20260905075503 74 210 0.0 0.0 0.00 0.00 0.00 96 1010.9
20260905074004 75 210 0.0 0.0 0.00 0.00 0.00 96 1011.0
20260905072504 75 210 0.0 0.0 0.00 0.00 0.00 96 1011.1
20260905070004 75 210 0.0 0.0 0.00 0.00 0.00 95 1011.1
20260905065504 75 210 0.0 0.0 0.00 0.00 0.00 95 1011.1
20260905064504 75 210 0.0 0.0 0.00 0.00 0.00 95 1011.2
20260905064004 75 210 0.0 0.0 0.00 0.00 0.00 95 1011.3
20260905062003 76 210 0.0 0.0 0.00 0.00 0.00 95 1011.4
20260905061504 76 210 0.0 0.0 0.00 0.00 0.00 95 1011.4
20260905060504 76 210 0.0 0.0 0.00 0.00 0.00 94 1011.5
20260905055004 76 210 0.0 0.0 0.00 0.00 0.00 94 1011.3
20260905054003 76 210 0.0 0.0 0.00 0.00 0.00 94 1011.4
20260905053503 76 210 0.0 0.0 0.00 0.00 0.00 94 1011.4
20260905053004 77 210 0.0 0.0 0.00 0.00 0.00 94 1011.5
20260905051504 77 210 0.0 0.0 0.00 0.00 0.00 94 1011.6
20260905051004 77 210 0.0 0.0 0.00 0.00 0.00 94 1011.6
20260905044504 77 210 0.0 0.0 0.00 0.00 0.00 93 1011.7
20260905043004 77 210 0.0 0.0 0.00 0.00 0.00 93 1011.7
20260905042503 77 210 0.0 0.0 0.00 0.00 0.00 93 1011.7
20260905041504 77 210 0.0 0.0 0.00 0.00 0.00 92 1011.8
20260905040504 78 210 0.0 0.0 0.00 0.00 0.00 91 1011.7
20260905035004 78 210 0.0 0.0 0.00 0.00 0.00 91 1011.8
20260905034504 78 210 0.0 0.0 0.00 0.00 0.00 90 1011.8
20260905034004 78 210 0.0 0.0 0.00 0.00 0.00 90 1011.9
20260905033505 78 210 0.0 0.0 0.00 0.00 0.00 90 1012.0
20260905033005 78 210 0.0 0.0 0.00 0.00 0.00 89 1012.0
20260905032504 78 210 0.0 0.0 0.00 0.00 0.00 89 1012.0
20260905032004 78 210 0.0 0.0 0.00 0.00 0.00 89 1011.9
20260905031504 79 210 0.0 0.0 0.00 0.00 0.00 89 1011.9
20260905025503 79 210 0.0 0.0 0.00 0.00 0.00 87 1011.9
20260905024504 79 210 0.0 0.0 0.00 0.00 0.00 87 1011.7
20260905024004 79 210 0.0 0.0 0.00 0.00 0.00 87 1011.6
20260905023504 79 210 0.0 0.0 0.00 0.00 0.00 87 1011.5
20260905023004 80 210 0.0 0.0 0.00 0.00 0.00 87 1011.5
20260905022504 80 210 0.0 0.0 0.00 0.00 0.00 86 1011.4
20260905022004 80 210 0.0 0.0 0.00 0.00 0.00 86 1011.4
20260905021504 80 210 0.0 0.0 0.00 0.00 0.00 86 1011.5
20260905021004 80 210 0.0 0.0 0.00 0.00 0.00 86 1011.5
20260905020504 81 210 0.0 0.0 0.00 0.00 0.00 85 1011.5
20260905020004 81 210 0.0 0.0 0.00 0.00 0.00 85 1011.5
20260905013504 81 210 0.0 0.0 0.00 0.00 0.00 84 1011.2
20260905010504 83 210 0.0 0.0 0.00 0.00 0.00 81 1011.1
20260905010004 83 210 0.0 0.0 0.00 0.00 0.00 81 1011.0
20260905005504 83 210 0.0 0.0 0.00 0.00 0.00 79 1010.9
20260905005004 84 210 0.0 0.0 0.00 0.00 0.00 79 1010.9
20260905004504 84 210 0.0 0.0 0.00 0.00 0.00 79 1010.9
20260905004004 84 210 0.0 0.0 0.00 0.00 0.00 77 1010.9
20260905003503 85 210 0.0 0.0 0.00 0.00 0.00 76 1010.8
20260905003004 85 210 0.0 0.0 0.00 0.00 0.00 76 1010.7
20260905002504 86 210 0.0 0.0 0.00 0.00 0.00 76 1010.7
20260905001505 86 210 0.0 0.0 0.00 0.00 0.00 74 1010.7
20260905000503 87 210 0.0 0.0 0.00 0.00 0.00 72 1010.7
20260905000004 88 210 0.0 0.0 0.00 0.00 0.00 70 1010.7
20260904235504 88 210 0.0 0.0 0.00 0.00 0.00 69 1010.7
20260904232504 90 210 0.0 0.0 0.00 0.00 0.00 64 1010.7
20260904231504 90 210 0.0 0.0 0.00 0.00 0.00 62 1010.7
20260904230503 91 210 0.0 0.0 0.00 0.00 0.00 61 1010.7
20260904230004 91 210 0.0 0.0 0.00 0.00 0.00 60 1010.6
20260904225504 92 210 0.0 0.0 0.00 0.00 0.00 59 1010.6
20260904225004 92 210 0.0 0.0 0.00 0.00 0.00 60 1010.5
20260904224504 92 210 0.0 1.0 0.00 0.00 0.00 60 1010.6
20260904223004 93 210 0.0 0.0 0.00 0.00 0.00 55 1010.6
20260904222004 93 210 0.0 0.0 0.00 0.00 0.00 51 1010.6
20260904220503 94 210 0.0 2.0 0.00 0.00 0.00 54 1010.8
20260904215504 94 210 0.0 0.0 0.00 0.00 0.00 51 1010.9
20260904214504 95 210 1.0 2.0 0.00 0.00 0.00 50 1010.9
20260904214004 95 210 0.0 3.0 0.00 0.00 0.00 49 1011.0
20260904213503 95 210 0.0 5.0 0.00 0.00 0.00 47 1011.0
20260904213004 95 211 1.0 5.0 0.00 0.00 0.00 47 1010.9
20260904212503 96 213 1.0 5.0 0.00 0.00 0.00 46 1010.9
20260904212004 96 249 1.0 3.0 0.00 0.00 0.00 45 1011.0
20260904210504 98 237 0.0 1.0 0.00 0.00 0.00 43 1011.3
20260904204503 99 210 1.0 5.0 0.00 0.00 0.00 40 1011.5
20260904203504 99 218 0.0 1.0 0.00 0.00 0.00 42 1011.6
20260904201504 98 213 0.0 6.0 0.00 0.00 0.00 41 1011.8